Flag for Israel Weather past 2 weeks in Rehovot, Israel

Now
84 °F

Scattered clouds.


Feels Like: 86 °F
Forecast: 72 / 89 °F
Wind: 5 mph from Southwest

Location: Ben Gurion International Airport

Current Time: Jul 26, 2014 at 11:09:31 AM

Latest Report: Jul 26, 2014 at 10:20 AM


Visibility: N/A

Pressure: 29.80 "Hg

Humidity: 51%

Dew point: 64 °F

Location of RehovotLocation

Historic Weather in Rehovot — Graph

°F

Rehovot temperature yesterday

Maximum temperature yesterday: 88 °F (at 2:20 PM)
Minimum temperature yesterday: 73 °F (at 3:50 AM)
Average temperature yesterday: 80 °F

Past Weeks' High & Low Weather Summary

 TemperatureHumidityPressure
High95 °F (Jul 12, 3:20 PM)89% (Jul 24, 3:20 AM)29.89 "Hg (Jul 24, 3:20 AM)
Low72 °F (Jul 12, 6:20 AM)34% (Jul 12, 3:20 PM)29.71 "Hg (Jul 25, 3:20 PM)
Average81 °F65%29.80 "Hg
* Reported Jul 11 9:20 AM — Jul 26 9:50 AM, Rehovot, Weather by CustomWeather, © 2014

Note: Actual official high and low records may vary slightly from our data, if they occured in-between our weather recording intervals... More about our weather records

Advertising

Rehovot weather history for previous 24 hours

 ConditionsComfort  
Time TempWeatherWind HumidityBarometerVisibility
9:50 AM
Jul 26
84 °FPartly sunny.5 mph55%29.80 "HgN/A
9:20 AM82 °FPartly sunny.5 mph58%29.80 "HgN/A
8:50 AM82 °FScattered clouds.5 mph58%29.80 "HgN/A
8:20 AM81 °FPassing clouds.7 mph62%29.77 "HgN/A
7:50 AM79 °FPassing clouds.6 mph65%29.77 "HgN/A
7:20 AM77 °FPassing clouds.7 mph69%29.77 "HgN/A
6:50 AM73 °FPassing clouds.8 mph78%29.77 "HgN/A
6:20 AM72 °FPassing clouds.3 mph78%29.77 "HgN/A
5:50 AM72 °FPassing clouds.3 mph78%29.77 "HgN/A
5:20 AM73 °FPassing clouds.2 mph78%29.77 "HgN/A
4:50 AM73 °FPassing clouds.3 mph78%29.74 "HgN/A
4:20 AM73 °FPassing clouds.5 mph78%29.74 "HgN/A
3:50 AM73 °FPassing clouds.5 mph78%29.77 "HgN/A
3:20 AM73 °FPassing clouds.5 mph78%29.77 "HgN/A
2:50 AM75 °FPassing clouds.6 mph69%29.77 "HgN/A
2:20 AM75 °FPassing clouds.5 mph69%29.77 "HgN/A
1:50 AM75 °FPassing clouds.5 mph74%29.77 "HgN/A
1:20 AM75 °FPassing clouds.3 mph74%29.77 "HgN/A
12:50 AM75 °FPassing clouds.3 mph74%29.77 "HgN/A
12:20 AM77 °FClear.2 mph69%29.77 "Hg10 mi
11:50 PM
Jul 25
77 °FClear.3 mph65%29.77 "Hg10 mi
11:20 PM77 °FPassing clouds.6 mph69%29.77 "HgN/A
10:50 PM77 °FPassing clouds.7 mph69%29.77 "HgN/A
10:20 PM79 °FPassing clouds.6 mph65%29.77 "HgN/A
9:50 PM79 °FPassing clouds.6 mph70%29.77 "HgN/A
9:20 PM79 °FPassing clouds.5 mph70%29.74 "HgN/A
8:50 PM79 °FPassing clouds.5 mph70%29.74 "HgN/A
8:20 PM79 °FScattered clouds.7 mph70%29.74 "HgN/A
7:50 PM81 °FScattered clouds.8 mph66%29.74 "HgN/A
7:20 PM81 °FScattered clouds.12 mph66%29.74 "HgN/A
6:50 PM82 °FScattered clouds.13 mph62%29.74 "HgN/A
6:20 PM82 °FScattered clouds.13 mph62%29.71 "HgN/A
5:50 PM86 °FScattered clouds.12 mph59%29.71 "HgN/A
5:20 PM86 °FScattered clouds.10 mph59%29.71 "HgN/A
4:50 PM88 °FPassing clouds.12 mph52%29.71 "HgN/A
4:20 PM88 °FSunny.9 mph49%29.71 "Hg10 mi
3:20 PM86 °FPassing clouds.13 mph52%29.71 "HgN/A
2:50 PM86 °FPassing clouds.13 mph52%29.74 "HgN/A
2:20 PM88 °FPassing clouds.12 mph49%29.74 "HgN/A
1:50 PM86 °FPassing clouds.12 mph52%29.74 "HgN/A
1:20 PM86 °FPassing clouds.9 mph52%29.74 "HgN/A
12:50 PM86 °FPassing clouds.9 mph52%29.74 "HgN/A
12:20 PM86 °FScattered clouds.10 mph55%29.74 "HgN/A
11:50 AM86 °FScattered clouds.9 mph55%29.74 "HgN/A
11:20 AM86 °FScattered clouds.10 mph52%29.77 "HgN/A
Weather by CustomWeather, © 2014

See weather overviewHow to use our weather pages